カタログに戻る

TITAN 3C TRANSTAGE R/B

運用中MEO
NORAD 8751·ROCKET BODY·🇺🇸 United States

打ち上げ Mar 15, 1976 から Cape Canaveral Space Force Station

Loading…

次のパス (今後24時間)

TLE

最新Source: Space-Track

元期: Sep 14, 2026, 12:05 UTC

1 08751U 76023F   26257.50388465 -.00000045  00000-0  00000-0 0  9990
2 08751  22.0407  41.5722 0122535 109.0912 263.5059  0.98324391184090

AllMySatでTITAN 3C TRANSTAGE R/Bをリアルタイム追跡

Download on the App Store